NIA980 HECA-HEGN

Flight info

Callsign NIA980
Flight time 0h 44m
Altitude 29000
Route CVO L315 SOKOT SOKOT1A
Aircraft A320/M-SDE3FGHIRWY/LB1

Departure

Time 2026-04-29 19:02
Airport Cairo International Airport (HECA)

Arrival

Time 2026-04-29 19:47
Airport Hurghada International Airport (HEGN)
Time Latitude Longitude Altitude Speed Heading
2026-04-29 18:46 30.13030 31.40431 390 ft 0 kts 131°
2026-04-29 18:49 30.13035 31.40424 390 ft 3 kts 131°
2026-04-29 18:49 30.13050 31.40405 390 ft 3 kts 129°
2026-04-29 18:50 30.13064 31.40385 390 ft 3 kts 125°
2026-04-29 18:50 30.13076 31.40363 390 ft 3 kts 115°
2026-04-29 18:50 30.13083 31.40340 390 ft 3 kts 88°
2026-04-29 18:50 30.13082 31.40331 390 ft 0 kts 76°
2026-04-29 18:52 30.13083 31.40333 390 ft 1 kts 76°
2026-04-29 18:53 30.13087 31.40353 390 ft 4 kts 76°
2026-04-29 18:53 30.13096 31.40395 390 ft 7 kts 76°
2026-04-29 18:53 30.13110 31.40459 390 ft 10 kts 76°
2026-04-29 18:53 30.13128 31.40544 390 ft 12 kts 76°
2026-04-29 18:54 30.13120 31.40639 390 ft 12 kts 147°
2026-04-29 18:54 30.13029 31.40673 390 ft 15 kts 161°
2026-04-29 18:54 30.12926 31.40714 390 ft 17 kts 162°
2026-04-29 18:54 30.12809 31.40757 390 ft 19 kts 162°
2026-04-29 18:55 30.12678 31.40805 390 ft 21 kts 162°
2026-04-29 18:55 30.12534 31.40853 390 ft 23 kts 162°
2026-04-29 18:55 30.12377 31.40911 390 ft 25 kts 162°
2026-04-29 18:55 30.12206 31.40972 390 ft 27 kts 162°
2026-04-29 18:56 30.12021 31.41039 390 ft 29 kts 163°
2026-04-29 18:56 30.11821 31.41110 389 ft 31 kts 162°
2026-04-29 18:56 30.11640 31.41177 389 ft 23 kts 163°
2026-04-29 18:56 30.11480 31.41233 389 ft 25 kts 162°
2026-04-29 18:57 30.11370 31.41270 389 ft 16 kts 176°
2026-04-29 18:57 30.11285 31.41192 389 ft 17 kts 231°
2026-04-29 18:57 30.11205 31.41084 389 ft 19 kts 229°
2026-04-29 18:57 30.11115 31.40966 389 ft 20 kts 229°
2026-04-29 18:58 30.11018 31.40837 388 ft 23 kts 229°
2026-04-29 18:58 30.10910 31.40693 388 ft 24 kts 230°
2026-04-29 18:58 30.10796 31.40536 388 ft 26 kts 230°
2026-04-29 18:58 30.10670 31.40367 386 ft 29 kts 226°
2026-04-29 18:59 30.10534 31.40199 391 ft 24 kts 229°
2026-04-29 18:59 30.10423 31.40047 392 ft 25 kts 231°
2026-04-29 18:59 30.10308 31.39881 391 ft 27 kts 229°
2026-04-29 18:59 30.10198 31.39735 390 ft 21 kts 229°
2026-04-29 19:00 30.10129 31.39659 389 ft 14 kts 205°
2026-04-29 19:00 30.10034 31.39682 389 ft 15 kts 128°
2026-04-29 19:00 30.10025 31.39695 388 ft 2 kts 128°
2026-04-29 19:00 30.10013 31.39719 388 ft 5 kts 118°
2026-04-29 19:01 30.10002 31.39766 388 ft 7 kts 93°
2026-04-29 19:01 30.10011 31.39833 388 ft 10 kts 83°
2026-04-29 19:01 30.10031 31.39916 388 ft 12 kts 55°
2026-04-29 19:01 30.10145 31.40066 388 ft 54 kts 48°
2026-04-29 19:02 30.10537 31.40583 387 ft 114 kts 49°
2026-04-29 19:02 30.10935 31.41112 389 ft 144 kts 48°
2026-04-29 19:02 30.11879 31.42386 871 ft 167 kts 47°
2026-04-29 19:02 30.12644 31.43451 1377 ft 177 kts 47°
2026-04-29 19:03 30.13313 31.44691 1954 ft 190 kts 71°
2026-04-29 19:03 30.13271 31.46252 2519 ft 206 kts 105°
2026-04-29 19:03 30.12422 31.47612 3096 ft 216 kts 137°
2026-04-29 19:03 30.11224 31.48767 3503 ft 232 kts 140°
2026-04-29 19:04 30.09846 31.49954 3770 ft 261 kts 145°
2026-04-29 19:04 30.08293 31.51155 4468 ft 273 kts 147°
2026-04-29 19:04 30.06696 31.52363 5402 ft 276 kts 147°
2026-04-29 19:04 30.05079 31.53597 6299 ft 280 kts 147°
2026-04-29 19:05 30.03451 31.54853 7178 ft 284 kts 147°
2026-04-29 19:05 30.01804 31.56140 8006 ft 289 kts 147°
2026-04-29 19:05 30.00131 31.57463 8807 ft 294 kts 147°
2026-04-29 19:05 29.98430 31.58815 9622 ft 300 kts 147°
2026-04-29 19:06 29.96692 31.60199 10253 ft 311 kts 147°
2026-04-29 19:06 29.94841 31.61671 10488 ft 335 kts 147°
2026-04-29 19:06 29.90859 31.64845 11534 ft 356 kts 147°
2026-04-29 19:07 29.88811 31.66478 12211 ft 361 kts 147°
2026-04-29 19:07 29.88110 31.67037 12442 ft 363 kts 147°
2026-04-29 19:07 29.84622 31.69811 13551 ft 371 kts 147°
2026-04-29 19:07 29.82483 31.71506 14180 ft 375 kts 147°
2026-04-29 19:08 29.80324 31.73215 14778 ft 379 kts 147°
2026-04-29 19:08 29.78142 31.74944 15368 ft 382 kts 147°
2026-04-29 19:08 29.75943 31.76689 15954 ft 386 kts 147°
2026-04-29 19:08 29.73724 31.78452 16549 ft 389 kts 147°
2026-04-29 19:09 29.71486 31.80228 17153 ft 393 kts 147°
2026-04-29 19:09 29.69225 31.82018 17734 ft 396 kts 147°
2026-04-29 19:09 29.66941 31.83824 18334 ft 400 kts 147°
2026-04-29 19:09 29.64638 31.85644 18837 ft 404 kts 147°
2026-04-29 19:10 29.62307 31.87485 19329 ft 409 kts 148°
2026-04-29 19:10 29.59951 31.89347 19820 ft 413 kts 148°
2026-04-29 19:10 29.57569 31.91229 20316 ft 418 kts 148°
2026-04-29 19:10 29.55160 31.93129 20798 ft 422 kts 148°
2026-04-29 19:11 29.52721 31.95050 21252 ft 427 kts 149°
2026-04-29 19:11 29.50259 31.96985 21681 ft 432 kts 149°
2026-04-29 19:11 29.48577 31.98307 21981 ft 435 kts 149°
2026-04-29 19:11 29.46068 32.00278 22375 ft 440 kts 149°
2026-04-29 19:12 29.43528 32.02275 22809 ft 445 kts 149°
2026-04-29 19:12 29.40963 32.04295 23230 ft 449 kts 149°
2026-04-29 19:12 29.38374 32.06332 23653 ft 454 kts 149°
2026-04-29 19:12 29.36646 32.07691 23901 ft 456 kts 149°
2026-04-29 19:13 29.33130 32.10454 24432 ft 460 kts 150°
2026-04-29 19:13 29.30488 32.12531 24832 ft 462 kts 150°
2026-04-29 19:13 29.27828 32.14616 25227 ft 464 kts 150°
2026-04-29 19:13 29.25153 32.16707 25622 ft 467 kts 150°
2026-04-29 19:14 29.22464 32.18806 26008 ft 469 kts 150°
2026-04-29 19:14 29.19759 32.20920 26391 ft 472 kts 150°
2026-04-29 19:14 29.17042 32.23046 26767 ft 474 kts 150°
2026-04-29 19:14 29.14308 32.25183 27115 ft 477 kts 150°
2026-04-29 19:15 29.11559 32.27331 27473 ft 480 kts 150°
2026-04-29 19:15 29.08793 32.29491 27820 ft 483 kts 150°
2026-04-29 19:15 29.06010 32.31660 28183 ft 486 kts 150°
2026-04-29 19:15 29.03212 32.33840 28558 ft 488 kts 150°
2026-04-29 19:16 29.00398 32.36036 28912 ft 491 kts 150°
2026-04-29 19:16 28.97576 32.38237 29031 ft 488 kts 150°
2026-04-29 19:16 28.94811 32.40395 29039 ft 477 kts 150°
2026-04-29 19:17 28.89322 32.44657 29036 ft 473 kts 151°
2026-04-29 19:17 28.83890 32.48868 29042 ft 471 kts 150°
2026-04-29 19:18 28.78470 32.53065 29036 ft 471 kts 151°
2026-04-29 19:18 28.73042 32.57249 29044 ft 471 kts 151°
2026-04-29 19:19 28.67620 32.61439 29052 ft 471 kts 150°
2026-04-29 19:19 28.62202 32.65636 29031 ft 471 kts 150°
2026-04-29 19:20 28.56779 32.69811 29042 ft 471 kts 151°
2026-04-29 19:20 28.51357 32.73986 29018 ft 470 kts 151°
2026-04-29 19:21 28.45949 32.78156 29024 ft 470 kts 151°
2026-04-29 19:21 28.40536 32.82313 29026 ft 469 kts 151°
2026-04-29 19:22 28.35121 32.86450 29017 ft 469 kts 151°
2026-04-29 19:22 28.29713 32.90590 29007 ft 469 kts 151°
2026-04-29 19:23 28.24316 32.94735 29007 ft 468 kts 151°
2026-04-29 19:23 28.18930 32.98858 29003 ft 466 kts 151°
2026-04-29 19:24 28.13548 33.02954 29008 ft 467 kts 151°
2026-04-29 19:24 28.10812 33.05031 28989 ft 478 kts 150°
2026-04-29 19:24 28.08013 33.07160 28797 ft 476 kts 150°
2026-04-29 19:24 28.05274 33.09245 28197 ft 473 kts 150°
2026-04-29 19:25 28.02554 33.11317 27611 ft 470 kts 150°
2026-04-29 19:25 27.99868 33.13403 27028 ft 467 kts 149°
2026-04-29 19:25 27.97306 33.15462 26497 ft 465 kts 148°
2026-04-29 19:25 27.94697 33.17606 25964 ft 462 kts 148°
2026-04-29 19:26 27.92114 33.19747 25415 ft 459 kts 147°
2026-04-29 19:26 27.89545 33.21872 24920 ft 456 kts 148°
2026-04-29 19:26 27.86984 33.23973 24432 ft 454 kts 148°
2026-04-29 19:26 27.84431 33.26050 23942 ft 451 kts 148°
2026-04-29 19:27 27.81884 33.28111 23451 ft 449 kts 148°
2026-04-29 19:27 27.79349 33.30156 22954 ft 446 kts 148°
2026-04-29 19:27 27.76833 33.32183 22492 ft 442 kts 148°
2026-04-29 19:27 27.74343 33.34191 22045 ft 438 kts 148°
2026-04-29 19:28 27.71876 33.36185 21587 ft 434 kts 147°
2026-04-29 19:28 27.69435 33.38163 21132 ft 430 kts 147°
2026-04-29 19:28 27.67016 33.40122 20672 ft 426 kts 147°
2026-04-29 19:28 27.64618 33.42062 20226 ft 422 kts 147°
2026-04-29 19:29 27.62243 33.43981 19800 ft 418 kts 147°
2026-04-29 19:29 27.59894 33.45877 19361 ft 414 kts 147°
2026-04-29 19:29 27.57561 33.47755 18905 ft 410 kts 147°
2026-04-29 19:29 27.55250 33.49611 18482 ft 406 kts 147°
2026-04-29 19:30 27.52959 33.51451 18032 ft 402 kts 148°
2026-04-29 19:30 27.50558 33.53007 17544 ft 395 kts 159°
2026-04-29 19:30 27.48052 33.54228 17061 ft 391 kts 160°
2026-04-29 19:30 27.45570 33.55433 16587 ft 387 kts 160°
2026-04-29 19:31 27.43111 33.56626 16102 ft 383 kts 159°
2026-04-29 19:31 27.40677 33.57808 15634 ft 379 kts 159°
2026-04-29 19:31 27.38265 33.58977 15185 ft 375 kts 159°
2026-04-29 19:31 27.35875 33.60122 14744 ft 371 kts 162°
2026-04-29 19:32 27.33422 33.60936 14307 ft 366 kts 168°
2026-04-29 19:32 27.30939 33.61670 13870 ft 363 kts 168°
2026-04-29 19:32 27.28506 33.62390 13385 ft 360 kts 167°
2026-04-29 19:32 27.26095 33.63105 12916 ft 357 kts 167°
2026-04-29 19:33 27.23701 33.63817 12457 ft 354 kts 167°
2026-04-29 19:33 27.21329 33.64523 12013 ft 352 kts 167°
2026-04-29 19:33 27.18972 33.65225 11572 ft 349 kts 167°
2026-04-29 19:33 27.16632 33.65920 11140 ft 347 kts 167°
2026-04-29 19:34 27.14311 33.66609 10727 ft 344 kts 167°
2026-04-29 19:34 27.12029 33.67286 10561 ft 333 kts 167°
2026-04-29 19:34 27.09826 33.67943 10445 ft 322 kts 166°
2026-04-29 19:34 27.07690 33.68580 10292 ft 313 kts 166°
2026-04-29 19:35 27.05597 33.69200 10013 ft 310 kts 167°
2026-04-29 19:35 27.03515 33.69812 9645 ft 309 kts 167°
2026-04-29 19:35 27.01438 33.70422 9262 ft 308 kts 166°
2026-04-29 19:35 26.99366 33.71037 8897 ft 307 kts 164°
2026-04-29 19:36 26.97483 33.72121 8543 ft 306 kts 139°
2026-04-29 19:36 26.96216 33.73991 8203 ft 301 kts 112°
2026-04-29 19:36 26.95799 33.76251 7875 ft 296 kts 86°
2026-04-29 19:36 26.96035 33.78505 7680 ft 287 kts 77°
2026-04-29 19:37 26.96427 33.80663 7548 ft 278 kts 75°
2026-04-29 19:37 26.96705 33.82048 7466 ft 271 kts 75°
2026-04-29 19:37 26.97232 33.84690 7295 ft 251 kts 75°
2026-04-29 19:37 26.97602 33.86570 7191 ft 243 kts 75°
2026-04-29 19:38 26.97958 33.88386 7055 ft 235 kts 75°
2026-04-29 19:38 26.98300 33.90145 6932 ft 227 kts 75°
2026-04-29 19:38 26.98625 33.91857 6733 ft 223 kts 75°
2026-04-29 19:38 26.98695 33.93588 6491 ft 226 kts 102°
2026-04-29 19:39 26.97931 33.95110 6244 ft 228 kts 137°
2026-04-29 19:39 26.96545 33.95912 6010 ft 225 kts 171°
2026-04-29 19:39 26.95042 33.95724 5751 ft 216 kts 206°
2026-04-29 19:39 26.93941 33.94645 5397 ft 204 kts 245°
2026-04-29 19:40 26.93671 33.93166 5055 ft 191 kts 283°
2026-04-29 19:40 26.94088 33.91793 4721 ft 184 kts 302°
2026-04-29 19:40 26.94830 33.90651 4378 ft 180 kts 311°
2026-04-29 19:40 26.95684 33.89635 4036 ft 178 kts 320°
2026-04-29 19:41 26.96650 33.88773 3695 ft 177 kts 323°
2026-04-29 19:41 26.97616 33.87948 3365 ft 172 kts 324°
2026-04-29 19:41 26.98557 33.87141 3024 ft 169 kts 323°
2026-04-29 19:41 26.99475 33.86362 2683 ft 162 kts 323°
2026-04-29 19:42 27.00361 33.85629 2341 ft 155 kts 323°
2026-04-29 19:42 27.00642 33.85399 2227 ft 153 kts 324°
2026-04-29 19:42 27.02242 33.84751 2007 ft 139 kts 341°
2026-04-29 19:42 27.03159 33.84457 2009 ft 136 kts 341°
2026-04-29 19:43 27.04067 33.84178 2007 ft 135 kts 342°
2026-04-29 19:43 27.04972 33.83906 2006 ft 135 kts 342°
2026-04-29 19:43 27.05880 33.83635 1960 ft 135 kts 343°
2026-04-29 19:43 27.06789 33.83365 1840 ft 135 kts 342°
2026-04-29 19:44 27.07698 33.83097 1692 ft 135 kts 342°
2026-04-29 19:44 27.08604 33.82829 1548 ft 135 kts 342°
2026-04-29 19:44 27.09525 33.82558 1381 ft 136 kts 342°
2026-04-29 19:44 27.10126 33.82380 1285 ft 135 kts 341°
2026-04-29 19:45 27.11035 33.82112 1110 ft 141 kts 343°
2026-04-29 19:45 27.11999 33.81828 931 ft 141 kts 343°
2026-04-29 19:45 27.12941 33.81555 734 ft 137 kts 343°
2026-04-29 19:45 27.13854 33.81294 604 ft 134 kts 344°
2026-04-29 19:46 27.14761 33.81022 379 ft 134 kts 340°
2026-04-29 19:46 27.15669 33.80743 222 ft 137 kts 341°
2026-04-29 19:46 27.16587 33.80477 71 ft 135 kts 342°
2026-04-29 19:46 27.17447 33.80217 54 ft 114 kts 343°
2026-04-29 19:47 27.18083 33.80029 50 ft 77 kts 345°
2026-04-29 19:47 27.18461 33.79916 50 ft 32 kts 349°
2026-04-29 19:47 27.18669 33.79871 52 ft 31 kts 355°
2026-04-29 19:47 27.18835 33.79893 51 ft 9 kts 14°
2026-04-29 19:48 27.18897 33.79910 58 ft 9 kts 14°
2026-04-29 19:48 27.18938 33.79924 57 ft 7 kts 31°
2026-04-29 19:48 27.18920 33.79970 55 ft 8 kts 171°